Regional Weather Roundup
Issued by NWS Sioux Falls, SD

Home | Current Version | Previous Version | Text Only | Print | Product List | Glossary Off
Versions: 1 2 3 4 5 6 7 8 9 10 11 12 13 14 15 16 17 18 19 20 21 22 23 24 25 26 27 28 29 30 31 32 33 34 35 36 37 38 39 40 41 42 43 44 45 46 47 48 49 50

000
ASUS43 KFSD 202202
RWRFSD

WEATHER ROUNDUP FOR SE SOUTH DAKOTA/SW MINNESOTA/NW IOWA
NATIONAL WEATHER SERVICE SIOUX FALLS SD
400 PM CST FRI JAN 20 2017

NOTE: "FAIR" INDICATES FEW OR NO CLOUDS BELOW 12,000 FEET WITH NO
SIGNIFICANT WEATHER AND OR OBSTRUCTIONS TO VISIBILITY.


SDZ038>040-050-052>070-202300-
SOUTHEAST SOUTH DAKOTA

CITY           SKY/WX    TMP DP  RH WIND       PRES   REMARKS
BROOKINGS      FOG       37  36  96 S14       29.41R VSB 1/2
CHAMBERLAIN    SUNNY     41  32  71 NW6       29.33R
HURON          SUNNY     44  36  73 S7        29.34S
MADISON        CLOUDY    37  37 100 S15G22      N/A
MITCHELL       SUNNY     49  40  71 S8        29.35S
SIOUX FALLS    FOG       40  40 100 SE16      29.43R VSB 1/2
WINNER         FAIR      43  29  57 W15       29.32S
YANKTON        CLOUDY    43  39  87 SE14      29.40S
$$

MNZ071-072-080-081-089-090-097-098-202300-
SOUTHWEST MINNESOTA

CITY           SKY/WX    TMP DP  RH WIND       PRES   REMARKS
FAIRMONT       FOG       36  35  96 SE7       29.51S VSB 1/2
JACKSON        FOG       34  34 100 SE3       29.49S VSB 3/4
LUVERNE        CLOUDY    37  36  93 SE7       29.45S FOG
MARSHALL       CLOUDY    39  37  92 SE10      29.47R
MONTEVIDEO     CLOUDY    36  36 100 S9        29.49S FOG
PIPESTONE      MIX PCPN  37  37 100 S10       29.42S VSB<1/4
REDWOOD FALLS  CLOUDY    36  34  92 SE9       29.50R FOG
TRACY          CLOUDY    40  39  97 SE7       29.47S FOG
WINDOM         CLOUDY    37  37 100 SE7       29.49R FOG
WORTHINGTON    FOG       37  37 100 S10       29.46S VSB 1/2
$$

IAZ001>003-012>014-020>022-031-032-NEZ013-014-SDZ071-202300-
NORTHWEST IOWA

CITY           SKY/WX    TMP DP  RH WIND       PRES   REMARKS
CHEROKEE       CLOUDY    39  39 100 SE6       29.47S
DENISON        CLOUDY    39  39 100 SE9G15    29.45S FOG
ESTHERVILLE    CLOUDY    35  35 100 SE10      29.49R FOG     WCI  27
LE MARS        CLOUDY    41  41 100 SE9       29.46S FOG
ORANGE CITY    FOG       39  39 100 SE5       29.45S VSB 1
SHELDON        MIX PCPN  39  39 100 SE13      29.44S VSB 1/4
SIOUX CITY     CLOUDY    43  42  97 SE7       29.45F FOG
SPENCER        FOG       38  38 100 SE6       29.48S VSB 1/2
STORM LAKE     FOG       37  37 100 SE8       29.47F VSB<1/4
$$

ABBREVIATIONS USED IN REMARKS
   TC - TEMPERATURE IN CELSIUS
  WCI - WIND CHILL INDEX
   HX - HEAT INDEX
  VSB - VISIBILITY





USA.gov is the U.S. government's official web portal to all federal, state and local government web resources and services.